This demonstration page uses our WeatherBlox Daily Observations layout. Learn more.

Left ArrowRight Arrow

36.17497, -115.13722

Hourly Observations for November 5, 2020

Temp ( °F °C ) Dew Point ( °F °C ) Humidity (%) Winds ( mph kmh ) Pressure ( in mb ) Visibility ( mi km ) Precip ( " mm )
12:53 am 00:53 Clear 66 18.9 32 0 28 28 W 3 6 30.19 1022 10 16 0.00 0.00
1:53 am 01:53 Clear 65 18.3 29 -1.7 26 26 WSW 5 7 30.19 1022 10 16 0.00 0.00
2:53 am 02:53 Clear 63 17.2 28 -2.2 27 27 W 3 6 30.19 1022 10 16 0.00 0.00
3:53 am 03:53 Clear 67 19.4 27 -2.8 22 22 N 3 6 30.19 1022 10 16 0.00 0.00
4:53 am 04:53 Clear 68 20 27 -2.8 21 21 NW 12 19 30.18 1022 10 16 0.00 0.00
5:53 am 05:53 Clear 62 16.7 29 -1.7 29 29 Calm 30.20 1023 10 16 0.00 0.00
6:53 am 06:53 Sunny 65 18.3 29 -1.7 26 26 Calm 30.21 1023 10 16 0.00 0.00
7:53 am 07:53 Sunny 70 21.1 30 -1.1 23 23 WNW 5 7 30.21 1023 10 16 0.00 0.00
8:53 am 08:53 Sunny 74 23.3 29 -1.7 19 19 VRB 3 6 30.20 1023 10 16 0.00 0.00
9:53 am 09:53 Sunny 78 25.6 29 -1.7 16 16 Calm 30.18 1022 10 16 0.00 0.00
10:53 am 10:53 Sunny 81 27.2 29 -1.7 15 15 Calm 30.14 1021 10 16 0.00 0.00
11:53 am 11:53 Sunny 85 29.4 29 -1.7 13 13 VRB 5 7 30.11 1020 10 16 0.00 0.00
12:53 pm 12:53 Sunny 85 29.4 29 -1.7 13 13 Calm 30.06 1018 10 16 0.00 0.00
1:53 pm 13:53 Sunny 87 30.6 28 -2.2 12 12 E 5 7 30.02 1017 10 16 0.00 0.00
2:53 pm 14:53 Sunny 86 30 28 -2.2 12 12 VRB 6 9 30.00 1016 10 16 0.00 0.00
3:53 pm 15:53 Sunny 85 29.4 28 -2.2 13 13 Calm 29.97 1015 10 16 0.00 0.00
4:53 pm 16:53 Clear 82 27.8 30 -1.1 15 15 SW 5 7 29.96 1015 10 16 0.00 0.00
5:53 pm 17:53 Clear 77 25 32 0 19 19 W 3 6 29.97 1015 10 16 0.00 0.00
6:53 pm 18:53 Clear 76 24.4 33 0.6 21 21 WNW 6 9 29.95 1014 10 16 0.00 0.00
7:53 pm 19:53 Clear 74 23.3 32 0 21 21 NW 5 7 29.92 1013 10 16 0.00 0.00
8:53 pm 20:53 Clear 71 21.7 31 -0.6 23 23 W 3 6 29.91 1013 10 16 0.00 0.00
9:53 pm 21:53 Clear 69 20.6 32 0 25 25 WNW 3 6 29.89 1012 10 16 0.00 0.00
10:53 pm 22:53 Clear 68 20 32 0 26 26 WNW 6 9 29.86 1011 10 16 0.00 0.00
11:53 pm 23:53 Clear 66 18.9 32 0 28 28 WNW 6 9 29.83 1010 10 16 0.00 0.00

Powered by AerisWeather